{"data":{"norad_id":68074,"epoch":"2026-05-25T02:59:19.887072Z","epoch_age_seconds":74356,"freshness":"FRESH","line1":"1 68074U 26042F   26145.12453573  .00016097  00000+0  48646-3 0  9990","line2":"2 68074  53.1582 183.2842 0001021  79.4230 280.6887 15.34404512 14012","mean_motion":15.34404512,"eccentricity":0.0001021,"inclination_deg":53.1582,"raan_deg":183.2842,"arg_perigee_deg":79.423,"mean_anomaly_deg":280.6887,"bstar":0.00048646,"rev_number":1401,"period_min":93.847482116893,"perigee_km":461.9913812058,"apogee_km":463.38827804441,"semimajor_km":6840.8268296251,"source":"CELESTRAK","updated_at":"2026-05-25T13:38:21.818118Z"}}